Weather reports worldwide

Advertisment
Trapani/Birgi, Italy (16429): temperature & dewpoint: 27.06.2020 18:00:00 - 03.07.2020 18:00:00 (CEST)Trapani/Birgi, Italy (16429): wind speed: 27.06.2020 18:00:00 - 03.07.2020 18:00:00 (CEST)Trapani/Birgi, Italy (16429): wind direction: 27.06.2020 18:00:00 - 03.07.2020 18:00:00 (CEST)Trapani/Birgi, Italy (16429): reduced air pressure: 27.06.2020 18:00:00 - 03.07.2020 18:00:00 (CEST)Trapani/Birgi, Italy (16429): visibility: 27.06.2020 18:00:00 - 03.07.2020 18:00:00 (CEST)Trapani/Birgi, Italy (16429): sunshine duration: 27.06.2020 18:00:00 - 03.07.2020 18:00:00 (CEST)
Date & Time tt [°C] td [°C] ff [km/h] ff [kn] dd ppp [hPa] vv [km] sd [min]
03.07.2020 18:00:00 27,0 25,4 22 12 NNW 1011,8 20 60
03.07.2020 17:00:00 27,2 25,4 26 14 NNW 1012,0 20 60
03.07.2020 16:00:00 27,4 25,4 24 13 NW 1012,1 20 60
03.07.2020 15:00:00 27,4 24,7 22 12 NNW 1012,5 20 60
03.07.2020 14:00:00 27,4 -30,0 21 11 NNW 1012,6 20 60
03.07.2020 13:00:00 27,4 24,5 21 11 NNW 1012,6 20 60
03.07.2020 12:00:00 27,0 23,9 16 9 NNW 1012,7 20 60
03.07.2020 11:00:00 26,2 23,7 13 7 NW 1012,4 20 60
03.07.2020 10:00:00 26,0 23,1 16 9 N 1012,4 20 60
03.07.2020 09:00:00 25,2 22,5 16 9 N 1012,2 20 60
03.07.2020 08:00:00 24,8 22,3 15 8 NNW 1012,0 16 24
03.07.2020 07:00:00 24,4 21,9 11 6 N 1011,1 12 -
03.07.2020 06:00:00 23,6 20,9 4 2 NNW 1011,0 10 -
03.07.2020 05:00:00 23,8 21,1 5 3 N 1010,7 10 -
03.07.2020 04:00:00 23,8 21,3 5 3 N 1011,0 10 -
03.07.2020 03:00:00 24,8 22,3 9 5 N 1011,1 10 -
03.07.2020 02:00:00 25,0 22,3 8 4 NNW 1011,4 10 -
03.07.2020 01:00:00 25,0 22,3 11 6 NNW 1011,6 10 -
03.07.2020 00:00:00 25,0 22,7 11 6 NNW 1011,8 10 -
02.07.2020 23:00:00 25,2 23,4 15 8 NNW 1011,8 10 -
02.07.2020 22:00:00 25,8 24,0 16 9 NNW 1011,5 10 -
02.07.2020 21:00:00 26,0 24,6 13 7 NNW 1011,1 10 -
02.07.2020 20:00:00 26,0 25,0 18 10 NW 1011,1 12 6
02.07.2020 19:00:00 27,2 25,0 22 12 WNW 1011,0 12 60
02.07.2020 18:00:00 28,0 24,2 24 13 NW 1011,1 15 60
02.07.2020 17:00:00 28,6 24,0 24 13 WNW 1011,3 18 42
02.07.2020 16:00:00 28,2 23,6 18 10 W 1011,9 18 60
02.07.2020 15:00:00 27,8 23,8 11 6 WNW 1012,2 18 60
02.07.2020 14:00:00 28,2 24,0 15 8 NW 1012,6 18 42
02.07.2020 13:00:00 27,8 23,8 16 9 NW 1012,6 18 30
02.07.2020 12:00:00 27,8 23,6 18 10 W 1012,2 18 60
02.07.2020 11:00:00 26,6 23,3 16 9 W 1012,2 15 30
02.07.2020 10:00:00 26,0 23,5 11 6 WNW 1012,1 15 18
02.07.2020 09:00:00 25,2 23,4 16 9 W 1012,0 15 6
02.07.2020 08:00:00 25,2 23,4 15 8 SW 1011,7 15 12
02.07.2020 07:00:00 22,0 14,9 8 4 SE 1011,4 10 36
02.07.2020 06:00:00 21,6 16,5 9 5 SE 1011,0 20 -
02.07.2020 05:00:00 22,0 18,8 9 5 ESE 1011,4 12 -
02.07.2020 04:00:00 21,0 19,1 11 6 SSE 1011,9 12 -
02.07.2020 03:00:00 21,4 19,7 9 5 SSE 1011,8 12 -
02.07.2020 02:00:00 21,0 14,9 11 6 SSE 1012,1 12 -
02.07.2020 01:00:00 23,4 18,1 11 6 SE 1012,3 12 -
02.07.2020 00:00:00 24,0 21,9 8 4 ESE 1012,4 12 -
01.07.2020 23:00:00 24,0 21,9 5 3 SSE 1012,7 12 -
01.07.2020 22:00:00 25,0 23,2 4 2 NW 1012,2 12 -
01.07.2020 21:00:00 26,0 25,1 11 6 NW 1012,0 12 -
01.07.2020 20:00:00 28,0 26,2 8 4 NW 1012,1 22 30
01.07.2020 19:00:00 29,0 25,4 8 4 NNW 1012,1 16 54
01.07.2020 18:00:00 29,6 23,5 15 8 NNW 1012,2 25 60
01.07.2020 17:00:00 30,4 22,3 16 9 NNW 1012,9 25 60
01.07.2020 16:00:00 31,4 20,0 16 9 NNW 1012,9 25 60
01.07.2020 15:00:00 31,2 16,8 16 9 NNW 1013,0 25 60
01.07.2020 14:00:00 30,4 20,3 16 9 NNW 1013,4 25 60
01.07.2020 13:00:00 30,2 22,4 16 9 NW 1013,4 25 60
01.07.2020 12:00:00 31,2 22,2 15 8 NW 1013,5 25 60
01.07.2020 11:00:00 29,8 19,2 11 6 NNW 1013,6 25 60
01.07.2020 10:00:00 28,4 22,2 11 6 NW 1014,0 25 60
01.07.2020 09:00:00 27,0 24,1 9 5 WNW 1013,8 25 60
01.07.2020 08:00:00 23,2 16,0 5 3 S 1013,5 25 60
01.07.2020 07:00:00 19,0 15,5 4 2 SSE 1013,3 16 6
01.07.2020 06:00:00 20,0 16,7 8 4 SE 1013,2 14 -
01.07.2020 05:00:00 19,0 13,6 8 4 SE 1013,1 14 -
01.07.2020 04:00:00 20,0 14,6 5 3 SE 1013,1 14 -
01.07.2020 03:00:00 20,4 16,6 11 6 SE 1013,2 14 -
01.07.2020 02:00:00 20,8 17,4 4 2 S 1013,3 14 -
01.07.2020 01:00:00 21,8 18,2 4 2 ESE 1013,2 14 -
01.07.2020 00:00:00 22,4 20,9 4 2 N 1013,1 14 -
30.06.2020 23:00:00 23,6 21,3 4 2 ESE 1013,2 14 -
30.06.2020 22:00:00 25,0 21,9 9 5 N 1013,2 14 -
30.06.2020 21:00:00 25,4 24,0 16 9 N 1013,0 18 -
30.06.2020 20:00:00 26,2 23,9 21 11 N 1012,9 20 60
30.06.2020 19:00:00 27,0 25,2 22 12 N 1012,9 25 60
30.06.2020 18:00:00 27,8 25,0 24 13 N 1013,1 25 60
30.06.2020 17:00:00 28,4 23,3 26 14 N 1013,1 25 60
30.06.2020 16:00:00 28,4 24,6 26 14 N 1013,1 25 60
30.06.2020 15:00:00 28,0 24,2 26 14 N 1013,5 25 60
30.06.2020 14:00:00 29,8 22,8 26 14 N 1013,7 25 60
30.06.2020 13:00:00 29,8 20,9 22 12 NNW 1014,0 25 60
30.06.2020 12:00:00 28,4 21,4 21 11 NNW 1013,9 25 60
30.06.2020 11:00:00 28,4 22,6 18 10 NNW 1014,1 25 60
30.06.2020 10:00:00 27,0 20,3 15 8 N 1014,3 25 60
30.06.2020 09:00:00 26,0 21,0 8 4 N 1014,3 25 60
30.06.2020 08:00:00 21,0 18,8 4 2 N 1014,1 25 60
30.06.2020 07:00:00 18,0 16,2 4 2 ESE 1014,0 20 -
30.06.2020 06:00:00 18,4 16,5 5 3 SSE 1013,9 16 -
30.06.2020 05:00:00 19,0 17,3 4 2 SSE 1014,0 16 -
30.06.2020 04:00:00 25,0 22,9 5 3 NE 1013,8 16 -
30.06.2020 03:00:00 21,4 19,5 2 1 NE 1013,8 16 -
30.06.2020 02:00:00 23,0 21,3 4 2 S 1014,1 10 -
30.06.2020 01:00:00 23,0 21,6 8 4 NNE 1014,2 16 -
30.06.2020 00:00:00 23,2 22,0 8 4 NNE 1014,5 16 -
29.06.2020 23:00:00 24,2 22,8 8 4 N 1014,6 20 -
29.06.2020 22:00:00 25,2 23,3 16 9 N 1014,6 16 -
29.06.2020 21:00:00 25,2 23,6 16 9 N 1014,4 16 -
29.06.2020 20:00:00 26,0 24,0 18 10 N 1014,1 20 6
29.06.2020 19:00:00 26,6 23,3 26 14 N 1013,9 20 60
29.06.2020 18:00:00 26,8 23,1 22 12 N 1014,3 16 60
29.06.2020 17:00:00 27,0 23,7 26 14 NNW 1014,2 16 60
29.06.2020 16:00:00 27,4 23,4 28 15 N 1014,6 16 60
29.06.2020 15:00:00 27,4 23,2 29 16 N 1014,9 16 60
29.06.2020 14:00:00 27,8 23,4 28 15 N 1015,1 16 60
29.06.2020 13:00:00 27,8 24,2 26 14 N 1015,4 16 60
29.06.2020 12:00:00 26,8 24,1 26 14 NNW 1015,3 16 60
29.06.2020 11:00:00 27,0 24,3 22 12 N 1015,3 16 60
29.06.2020 10:00:00 25,4 23,1 21 11 NNW 1015,3 16 60
29.06.2020 09:00:00 25,0 22,7 15 8 N 1015,5 16 60
29.06.2020 08:00:00 24,2 21,7 16 9 N 1015,1 16 48
29.06.2020 07:00:00 23,2 21,5 9 5 N 1014,9 20 -
29.06.2020 06:00:00 23,2 21,7 8 4 NNE 1014,6 15 -
29.06.2020 05:00:00 24,0 22,4 11 6 N 1014,8 15 -
29.06.2020 04:00:00 24,0 22,4 13 7 N 1014,9 15 -
29.06.2020 03:00:00 24,0 22,3 13 7 N 1015,0 15 -
29.06.2020 02:00:00 24,0 22,3 11 6 N 1015,0 15 -
29.06.2020 01:00:00 24,0 22,3 15 8 N 1015,1 15 -
29.06.2020 00:00:00 24,0 22,3 13 7 N 1015,1 18 -
28.06.2020 23:00:00 24,0 22,4 11 6 N 1015,1 20 -
28.06.2020 22:00:00 24,2 22,6 11 6 NNW 1014,7 20 -
28.06.2020 21:00:00 25,0 23,6 16 9 N 1014,9 20 -
28.06.2020 20:00:00 25,2 23,4 15 8 NNW 1015,1 20 60
28.06.2020 19:00:00 25,8 23,3 16 9 NNW 1015,1 20 60
28.06.2020 18:00:00 26,0 23,3 16 9 NNW 1015,2 20 60
28.06.2020 17:00:00 26,4 23,5 16 9 NNW 1015,7 20 60
28.06.2020 16:00:00 27,0 23,2 16 9 NW 1016,0 20 60
28.06.2020 15:00:00 27,4 22,6 16 9 W 1016,1 20 60
28.06.2020 14:00:00 26,6 22,7 16 9 W 1016,2 20 60
28.06.2020 13:00:00 27,2 22,6 18 10 WSW 1016,4 20 60
28.06.2020 12:00:00 26,8 22,0 16 9 W 1016,2 20 60
28.06.2020 11:00:00 26,0 22,3 16 9 WSW 1016,3 20 60
28.06.2020 10:00:00 25,0 20,9 15 8 WSW 1021,0 20 60
28.06.2020 09:00:00 24,6 20,9 8 4 SSE 1016,3 16 60
28.06.2020 08:00:00 22,0 19,7 9 5 SSE 1016,2 16 36
28.06.2020 07:00:00 20,2 17,8 8 4 ESE 1015,7 10 -
28.06.2020 06:00:00 20,4 18,4 5 3 SE 1015,4 9 -
28.06.2020 05:00:00 20,8 19,1 8 4 S 1015,2 20 -
28.06.2020 04:00:00 21,2 19,5 4 2 W 1015,1 20 -
28.06.2020 03:00:00 21,8 20,8 8 4 S 1015,1 20 -
28.06.2020 02:00:00 22,6 21,4 9 5 SE 1015,5 20 -
28.06.2020 01:00:00 23,0 22,0 15 8 SE 1015,9 20 -
28.06.2020 00:00:00 22,8 20,2 9 5 S 1016,0 20 -
27.06.2020 23:00:00 23,0 20,3 11 6 S 1016,0 20 -
27.06.2020 22:00:00 23,6 22,0 4 2 WSW 1015,7 20 -
27.06.2020 21:00:00 24,8 23,4 11 6 WNW 1014,9 20 -
27.06.2020 20:00:00 26,6 22,7 9 5 NW 1014,8 25 0
27.06.2020 19:00:00 27,0 20,3 13 7 WNW 1014,9 25 60
27.06.2020 18:00:00 27,2 21,9 18 10 NNW 1014,6 25 60

tt = temperature
td = dewpoint
ff = wind speed
dd = wind direction
ppp = reduced air pressure
vv = visibility
sd = sunshine duration

Next stations